Location: Buch
(49.7331°N, 12.1098°E)
Time: 09:41:54
(UTC+00:00)

Cosmos 1833 - Pass Details

Date: 12 May 2021
Orbit: 833 x 865 km, 70.9° (Epoch: 13 June)

Event Time Altitude Azimuth Distance (km) Brightness Sun altitude
Rises 22:46:46 0° 330° (NNW) 3,443 8.5 -21.7°
Reaches altitude 10° 22:49:14 10° 329° (NNW) 2,506 7.6 -21.8°
Maximum altitude 22:55:00 80° 244° (WSW) 883 4.2 -21.8°
Enters shadow 22:56:48 46° 165° (SSE) 1,149 4.4 -21.8°
